{"data":{"norad_id":51878,"intl_designator":"2022-022AC","name":"STARLINK-3575","alt_names":[],"object_type":"PAYLOAD","status":"ACTIVE","operator":null,"country":"US","launch_date":"2022-03-03","launch_site_code":"AFETR","launch_vehicle":null,"mission":null,"orbit_class":"UNKNOWN","rcs_meters":null,"size_class":null,"mass_kg":null,"dimensions":null,"purposes":["comms"],"wikipedia_slug":null,"has_3d_model":false,"image_url":null,"decayed_at":null,"tle_current":{"epoch":"2026-05-25T02:34:02.703936Z","epoch_age_seconds":66632,"freshness":"FRESH","line1":"1 51878U 22022AC  26145.10697574 -.00001646  00000+0 -85276-4 0  9994","line2":"2 51878  53.2132  26.0680 0001833  89.5352 270.5850 15.08851412234658","mean_motion":15.08851412,"eccentricity":0.0001833,"inclination_deg":53.2132,"raan_deg":26.068,"arg_perigee_deg":89.5352,"mean_anomaly_deg":270.585,"bstar":-8.5276e-5,"rev_number":23465,"period_min":95.436832848323,"perigee_km":538.44046618392,"apogee_km":540.97654834688,"semimajor_km":6917.8455072654,"source":"CELESTRAK","updated_at":"2026-05-25T13:38:16.984981Z"}}}